When you browse on this site, cookies collect data to enhance your experience and personalize the content and advertising you see.
Visit our Privacy Policy to learn more. By continuing to use the site, you agree to this use of cookies and data.

Hourly Weather Angamacutiro de la Union

Today, 6 July, Monday

Time Temperature Precipitation Wind Pressure Humidity
00:00 +19°C° 0 mm 1 mps 624 mmHg 87%
01:00 +17°C° 0 mm 0 mps 623 mmHg 87%
02:00 +17°C° 0 mm 0 mps 623 mmHg 88%
03:00 +16°C° 0 mm 0 mps 623 mmHg 89%
04:00 +16°C° 0 mm 0 mps 623 mmHg 90%
05:00 +15°C° 0 mm 0 mps 623 mmHg 91%
06:00 +18°C° 0 mm 0 mps 624 mmHg 83%
07:00 +21°C° 0 mm 0 mps 625 mmHg 74%
08:00 +23°C° 0 mm 0 mps 626 mmHg 66%
09:00 +25°C° 0 mm 0 mps 627 mmHg 56%
10:00 +28°C° 0 mm 0 mps 627 mmHg 46%
11:00 +32°C° 0 mm 1 mps 628 mmHg 36%
12:00 +32°C° 0 mm 1 mps 627 mmHg 33%
13:00 +32°C° 0 mm 2 mps 627 mmHg 29%
14:00 +34°C° 0 mm 3 mps 626 mmHg 26%
15:00 +32°C° 0 mm 2 mps 625 mmHg 28%
16:00 +31°C° 0 mm 2 mps 625 mmHg 30%
17:00 +30°C° 0 mm 2 mps 624 mmHg 33%
18:00 +28°C° 0 mm 1 mps 624 mmHg 42%
19:00 +25°C° 0 mm 1 mps 624 mmHg 52%
20:00 +22°C° 0 mm 1 mps 624 mmHg 61%
21:00 +22°C° 0 mm 1 mps 624 mmHg 65%
22:00 +21°C° 0 mm 1 mps 624 mmHg 69%
23:00 +21°C° 0 mm 1 mps 624 mmHg 72%

Tomorrow, 7 July, Tuesday

Time Temperature Precipitation Wind Pressure Humidity
00:00 +20°C° 0 mm 1 mps 624 mmHg 75%
01:00 +20°C° 0 mm 1 mps 624 mmHg 79%
02:00 +19°C° 0 mm 1 mps 624 mmHg 82%
03:00 +19°C° 0 mm 1 mps 624 mmHg 84%
04:00 +18°C° 0 mm 1 mps 624 mmHg 86%
05:00 +18°C° 0 mm 1 mps 624 mmHg 88%
06:00 +19°C° 0 mm 0 mps 625 mmHg 79%
07:00 +21°C° 0 mm 0 mps 626 mmHg 70%
08:00 +24°C° 0 mm 0 mps 627 mmHg 60%
09:00 +26°C° 0.1 mm 0 mps 628 mmHg 54%
10:00 +28°C° 0.1 mm 0 mps 628 mmHg 49%
11:00 +32°C° 0.1 mm 1 mps 628 mmHg 43%
12:00 +31°C° 0.3 mm 1 mps 627 mmHg 42%
13:00 +31°C° 0.3 mm 1 mps 627 mmHg 42%
14:00 +31°C° 0.3 mm 1 mps 626 mmHg 42%
15:00 +29°C° 0.3 mm 1 mps 625 mmHg 46%
16:00 +28°C° 0.3 mm 2 mps 624 mmHg 51%
17:00 +27°C° 0.3 mm 2 mps 623 mmHg 55%
18:00 +25°C° 0.5 mm 2 mps 624 mmHg 64%
19:00 +23°C° 0.5 mm 1 mps 624 mmHg 73%
20:00 +21°C° 0.5 mm 1 mps 624 mmHg 82%
21:00 +21°C° 0.7 mm 1 mps 624 mmHg 84%
22:00 +21°C° 0.7 mm 1 mps 624 mmHg 86%
23:00 +21°C° 0.7 mm 1 mps 625 mmHg 87%

Day after tomorrow, 8 July, Wednesday

Time Temperature Precipitation Wind Pressure Humidity
00:00 +20°C° 0.5 mm 1 mps 625 mmHg 89%
01:00 +20°C° 0.5 mm 1 mps 624 mmHg 91%
02:00 +19°C° 0.5 mm 1 mps 624 mmHg 93%
03:00 +19°C° 0.1 mm 1 mps 624 mmHg 93%
04:00 +16°C° 0.1 mm 0 mps 624 mmHg 94%
05:00 +16°C° 0.1 mm 0 mps 623 mmHg 94%
06:00 +19°C° 0 mm 1 mps 624 mmHg 88%
07:00 +21°C° 0 mm 1 mps 625 mmHg 82%
08:00 +22°C° 0 mm 1 mps 626 mmHg 77%
09:00 +24°C° 0.2 mm 1 mps 626 mmHg 68%
10:00 +26°C° 0.2 mm 2 mps 626 mmHg 60%
11:00 +28°C° 0.2 mm 2 mps 627 mmHg 52%
12:00 +27°C° 0.6 mm 3 mps 626 mmHg 54%
13:00 +27°C° 0.6 mm 3 mps 626 mmHg 55%
14:00 +26°C° 0.6 mm 3 mps 625 mmHg 57%
15:00 +25°C° 0.2 mm 3 mps 625 mmHg 60%
16:00 +25°C° 0.2 mm 3 mps 625 mmHg 62%
17:00 +24°C° 0.2 mm 3 mps 624 mmHg 65%
18:00 +23°C° 0.2 mm 2 mps 625 mmHg 70%
19:00 +22°C° 0.2 mm 1 mps 625 mmHg 75%
20:00 +21°C° 0.2 mm 1 mps 625 mmHg 79%
21:00 +20°C° 0.3 mm 1 mps 626 mmHg 81%
22:00 +20°C° 0.3 mm 1 mps 626 mmHg 83%
23:00 +20°C° 0.3 mm 1 mps 626 mmHg 84%

9 July, Thursday

Time Temperature Precipitation Wind Pressure Humidity
00:00 +19°C° 0.2 mm 1 mps 625 mmHg 86%
01:00 +19°C° 0.2 mm 1 mps 625 mmHg 87%
02:00 +19°C° 0.2 mm 1 mps 625 mmHg 88%
03:00 +19°C° 0 mm 1 mps 625 mmHg 88%
04:00 +19°C° 0 mm 1 mps 624 mmHg 89%
05:00 +18°C° 0 mm 1 mps 624 mmHg 89%
06:00 +17°C° 0 mm 0 mps 625 mmHg 85%
07:00 +19°C° 0 mm 0 mps 625 mmHg 80%
08:00 +20°C° 0 mm 0 mps 626 mmHg 75%
09:00 +22°C° 0.4 mm 1 mps 626 mmHg 74%
10:00 +23°C° 0.4 mm 1 mps 626 mmHg 72%
11:00 +23°C° 0.4 mm 1 mps 626 mmHg 70%
12:00 +24°C° 0.5 mm 1 mps 626 mmHg 68%
13:00 +24°C° 0.5 mm 1 mps 625 mmHg 67%
14:00 +25°C° 0.5 mm 1 mps 625 mmHg 65%
15:00 +24°C° 0.2 mm 1 mps 625 mmHg 68%
16:00 +23°C° 0.2 mm 1 mps 624 mmHg 71%
17:00 +22°C° 0.2 mm 1 mps 624 mmHg 74%
18:00 +21°C° 0 mm 1 mps 624 mmHg 76%
19:00 +20°C° 0 mm 1 mps 625 mmHg 78%
20:00 +19°C° 0 mm 1 mps 625 mmHg 80%
21:00 +19°C° 0.1 mm 1 mps 625 mmHg 80%
22:00 +19°C° 0.1 mm 1 mps 625 mmHg 79%
23:00 +17°C° 0.1 mm 0 mps 626 mmHg 79%

10 July, Friday

Time Temperature Precipitation Wind Pressure Humidity
00:00 +17°C° 0 mm 0 mps 625 mmHg 80%
01:00 +16°C° 0 mm 0 mps 625 mmHg 81%
02:00 +16°C° 0 mm 0 mps 624 mmHg 83%
03:00 +15°C° 0 mm 0 mps 624 mmHg 83%
04:00 +16°C° 0 mm 1 mps 624 mmHg 82%
05:00 +16°C° 0 mm 1 mps 624 mmHg 82%
06:00 +19°C° 0 mm 1 mps 625 mmHg 75%
07:00 +21°C° 0 mm 1 mps 626 mmHg 69%
08:00 +21°C° 0 mm 0 mps 627 mmHg 62%
09:00 +25°C° 0 mm 1 mps 628 mmHg 54%
10:00 +28°C° 0 mm 1 mps 628 mmHg 45%
11:00 +30°C° 0 mm 1 mps 629 mmHg 37%
12:00 +30°C° 0 mm 1 mps 628 mmHg 36%
13:00 +31°C° 0 mm 1 mps 628 mmHg 36%
14:00 +31°C° 0 mm 1 mps 627 mmHg 36%
15:00 +30°C° 0 mm 1 mps 627 mmHg 38%
16:00 +29°C° 0 mm 1 mps 626 mmHg 41%
17:00 +26°C° 0 mm 0 mps 626 mmHg 43%
18:00 +25°C° 0.2 mm 1 mps 626 mmHg 51%
19:00 +23°C° 0.2 mm 1 mps 625 mmHg 60%
20:00 +20°C° 0.2 mm 1 mps 625 mmHg 68%
21:00 +19°C° 0.1 mm 1 mps 625 mmHg 71%
22:00 +17°C° 0.1 mm 0 mps 625 mmHg 74%
23:00 +16°C° 0.1 mm 0 mps 625 mmHg 77%

11 July, Saturday

Time Temperature Precipitation Wind Pressure Humidity
00:00 +15°C° 0 mm 0 mps 624 mmHg 79%
01:00 +15°C° 0 mm 0 mps 624 mmHg 81%
02:00 +15°C° 0 mm 0 mps 624 mmHg 83%
03:00 +14°C° 0 mm 0 mps 624 mmHg 86%
04:00 +14°C° 0 mm 0 mps 624 mmHg 88%
05:00 +15°C° 0 mm 1 mps 624 mmHg 90%
06:00 +18°C° 0 mm 1 mps 625 mmHg 82%
07:00 +20°C° 0 mm 1 mps 626 mmHg 73%
08:00 +23°C° 0 mm 1 mps 627 mmHg 65%
09:00 +25°C° 0 mm 2 mps 627 mmHg 55%
10:00 +27°C° 0 mm 3 mps 628 mmHg 45%
11:00 +30°C° 0 mm 3 mps 628 mmHg 35%
12:00 +30°C° 0 mm 3 mps 628 mmHg 32%
13:00 +32°C° 0 mm 4 mps 628 mmHg 30%
14:00 +33°C° 0 mm 4 mps 627 mmHg 27%
15:00 +32°C° 0 mm 4 mps 627 mmHg 30%
16:00 +30°C° 0 mm 3 mps 627 mmHg 33%
17:00 +29°C° 0 mm 3 mps 626 mmHg 37%
18:00 +26°C° 0 mm 3 mps 626 mmHg 45%
19:00 +24°C° 0 mm 2 mps 626 mmHg 53%
20:00 +20°C° 0 mm 2 mps 625 mmHg 61%
21:00 +19°C° 0 mm 2 mps 625 mmHg 65%
22:00 +19°C° 0 mm 1 mps 625 mmHg 69%
23:00 +19°C° 0 mm 1 mps 625 mmHg 73%
Show more